Year,Month,Day,Hour,Minute,Value (Times are PST for temperature in C)
2018,04,26,00,00,12.60
2018,04,26,00,01,12.60
2018,04,26,00,02,12.60
2018,04,26,00,03,12.60
2018,04,26,00,04,12.60
2018,04,26,00,05,12.60
2018,04,26,00,06,12.60
2018,04,26,00,07,12.60
2018,04,26,00,08,12.60
2018,04,26,00,09,12.60
2018,04,26,00,10,12.60
2018,04,26,00,11,12.60
2018,04,26,00,12,12.60
2018,04,26,00,13,12.60
2018,04,26,00,14,12.60
2018,04,26,00,15,12.60
2018,04,26,00,16,12.60
2018,04,26,00,17,12.50
2018,04,26,00,18,12.50
2018,04,26,00,19,12.40
2018,04,26,00,20,12.40
2018,04,26,00,21,12.30
2018,04,26,00,22,12.30
2018,04,26,00,23,12.30
2018,04,26,00,24,12.30
2018,04,26,00,25,12.30
2018,04,26,00,26,12.40
2018,04,26,00,27,12.40
2018,04,26,00,28,12.50
2018,04,26,00,29,12.50
2018,04,26,00,30,12.60
2018,04,26,00,31,12.60
2018,04,26,00,32,12.60
2018,04,26,00,33,12.50
2018,04,26,00,34,12.50
2018,04,26,00,35,12.50
2018,04,26,00,36,12.40
2018,04,26,00,37,12.40
2018,04,26,00,38,12.40
2018,04,26,00,39,12.40
2018,04,26,00,40,12.30
2018,04,26,00,41,12.20
2018,04,26,00,42,12.20
2018,04,26,00,43,12.10
2018,04,26,00,44,12.10
2018,04,26,00,45,12.10
2018,04,26,00,46,12.00
2018,04,26,00,47,12.00
2018,04,26,00,48,12.00
2018,04,26,00,49,11.90
2018,04,26,00,50,11.90
2018,04,26,00,51,11.90
2018,04,26,00,52,11.90
2018,04,26,00,53,11.90
2018,04,26,00,54,11.90
2018,04,26,00,55,11.90
2018,04,26,00,56,11.90
2018,04,26,00,57,11.90
2018,04,26,00,58,11.90
2018,04,26,00,59,11.90
2018,04,26,01,00,11.90
2018,04,26,01,01,11.90
2018,04,26,01,02,11.90
2018,04,26,01,03,11.90
2018,04,26,01,04,11.90
2018,04,26,01,05,11.80
2018,04,26,01,06,11.80
2018,04,26,01,07,11.80
2018,04,26,01,08,11.80
2018,04,26,01,09,11.80
2018,04,26,01,10,11.80
2018,04,26,01,11,11.80
2018,04,26,01,12,11.80
2018,04,26,01,13,11.80
2018,04,26,01,14,11.80
2018,04,26,01,15,11.90
2018,04,26,01,16,11.90
2018,04,26,01,17,11.90
2018,04,26,01,18,11.90
2018,04,26,01,19,11.90
2018,04,26,01,20,11.80
2018,04,26,01,21,11.80
2018,04,26,01,22,11.70
2018,04,26,01,23,11.50
2018,04,26,01,24,11.40
2018,04,26,01,25,11.30
2018,04,26,01,26,11.20
2018,04,26,01,27,11.00
2018,04,26,01,28,11.00
2018,04,26,01,29,11.10
2018,04,26,01,30,11.30
2018,04,26,01,31,11.40
2018,04,26,01,32,11.30
2018,04,26,01,33,11.30
2018,04,26,01,34,11.20
2018,04,26,01,35,11.20
2018,04,26,01,36,11.20
2018,04,26,01,37,11.20
2018,04,26,01,38,11.20
2018,04,26,01,39,11.20
2018,04,26,01,40,11.20
2018,04,26,01,41,11.20
2018,04,26,01,42,11.20
2018,04,26,01,43,11.10
2018,04,26,01,44,11.00
2018,04,26,01,45,10.90
2018,04,26,01,46,10.90
2018,04,26,01,47,10.80
2018,04,26,01,48,10.80
2018,04,26,01,49,10.80
2018,04,26,01,50,10.70
2018,04,26,01,51,10.70
2018,04,26,01,52,10.70
2018,04,26,01,53,10.70
2018,04,26,01,54,10.70
2018,04,26,01,55,10.70
2018,04,26,01,56,10.70
2018,04,26,01,57,10.70
2018,04,26,01,58,10.70
2018,04,26,01,59,10.70
2018,04,26,02,00,10.70
2018,04,26,02,01,10.70
2018,04,26,02,02,10.70
2018,04,26,02,03,10.60
2018,04,26,02,04,10.60
2018,04,26,02,05,10.50
2018,04,26,02,06,10.50
2018,04,26,02,07,10.40
2018,04,26,02,08,10.40
2018,04,26,02,09,10.40
2018,04,26,02,10,10.30
2018,04,26,02,11,10.30
2018,04,26,02,12,10.30
2018,04,26,02,13,10.20
2018,04,26,02,14,10.20
2018,04,26,02,15,10.20
2018,04,26,02,16,10.20
2018,04,26,02,17,10.10
2018,04,26,02,18,10.20
2018,04,26,02,19,10.20
2018,04,26,02,20,10.20
2018,04,26,02,21,10.30
2018,04,26,02,22,10.30
2018,04,26,02,23,10.30
2018,04,26,02,24,10.40
2018,04,26,02,25,10.50
2018,04,26,02,26,10.50
2018,04,26,02,27,10.60
2018,04,26,02,28,10.60
2018,04,26,02,29,10.60
2018,04,26,02,30,10.70
2018,04,26,02,31,10.70
2018,04,26,02,32,10.70
2018,04,26,02,33,10.60
2018,04,26,02,34,10.70
2018,04,26,02,35,10.70
2018,04,26,02,36,10.60
2018,04,26,02,37,10.60
2018,04,26,02,38,10.60
2018,04,26,02,39,10.50
2018,04,26,02,40,10.50
2018,04,26,02,41,10.50
2018,04,26,02,42,10.40
2018,04,26,02,43,10.40
2018,04,26,02,44,10.30
2018,04,26,02,45,10.20
2018,04,26,02,46,10.20
2018,04,26,02,47,10.20
2018,04,26,02,48,10.10
2018,04,26,02,49,10.10
2018,04,26,02,50,10.00
2018,04,26,02,51,10.00
2018,04,26,02,52,9.90
2018,04,26,02,53,9.90
2018,04,26,02,54,9.90
2018,04,26,02,55,9.90
2018,04,26,02,56,9.90
2018,04,26,02,57,9.80
2018,04,26,02,58,9.80
2018,04,26,02,59,9.80
2018,04,26,03,00,9.80
2018,04,26,03,01,9.80
2018,04,26,03,02,9.80
2018,04,26,03,03,9.80
2018,04,26,03,04,9.80
2018,04,26,03,05,9.80
2018,04,26,03,06,9.70
2018,04,26,03,07,9.70
2018,04,26,03,08,9.70
2018,04,26,03,09,9.70
2018,04,26,03,10,9.70
2018,04,26,03,11,9.70
2018,04,26,03,12,9.70
2018,04,26,03,13,9.70
2018,04,26,03,14,9.70
2018,04,26,03,15,9.70
2018,04,26,03,16,9.70
2018,04,26,03,17,9.80
2018,04,26,03,18,9.90
2018,04,26,03,19,10.00
2018,04,26,03,20,10.10
2018,04,26,03,21,10.30
2018,04,26,03,22,10.40
2018,04,26,03,23,10.50
2018,04,26,03,24,10.60
2018,04,26,03,25,10.70
2018,04,26,03,26,10.80
2018,04,26,03,27,10.90
2018,04,26,03,28,11.00
2018,04,26,03,29,11.10
2018,04,26,03,30,11.10
2018,04,26,03,31,11.20
2018,04,26,03,32,11.20
2018,04,26,03,33,11.30
2018,04,26,03,34,11.30
2018,04,26,03,35,11.30
2018,04,26,03,36,11.40
2018,04,26,03,37,11.40
2018,04,26,03,38,11.30
2018,04,26,03,39,11.30
2018,04,26,03,40,11.30
2018,04,26,03,41,11.20
2018,04,26,03,42,11.20
2018,04,26,03,43,11.10
2018,04,26,03,44,11.00
2018,04,26,03,45,10.90
2018,04,26,03,46,10.80
2018,04,26,03,47,10.80
2018,04,26,03,48,10.70
2018,04,26,03,49,10.70
2018,04,26,03,50,10.70
2018,04,26,03,51,10.70
2018,04,26,03,52,10.70
2018,04,26,03,53,10.80
2018,04,26,03,54,10.90
2018,04,26,03,55,10.90
2018,04,26,03,56,11.00
2018,04,26,03,57,11.20
2018,04,26,03,58,11.30
2018,04,26,03,59,11.40
2018,04,26,04,00,11.50
2018,04,26,04,01,11.60
2018,04,26,04,02,11.80
2018,04,26,04,03,11.90
2018,04,26,04,04,12.10
2018,04,26,04,05,12.20
2018,04,26,04,06,12.20
2018,04,26,04,07,12.30
2018,04,26,04,08,12.30
2018,04,26,04,09,12.30
2018,04,26,04,10,12.40
2018,04,26,04,11,12.40
2018,04,26,04,12,12.40
2018,04,26,04,13,12.50
2018,04,26,04,14,12.60
2018,04,26,04,15,12.60
2018,04,26,04,16,12.60
2018,04,26,04,17,12.70
2018,04,26,04,18,12.70
2018,04,26,04,19,12.70
2018,04,26,04,20,12.60
2018,04,26,04,21,12.60
2018,04,26,04,22,12.60
2018,04,26,04,23,12.60
2018,04,26,04,24,12.60
2018,04,26,04,25,12.70
2018,04,26,04,26,12.70
2018,04,26,04,27,12.70
2018,04,26,04,28,12.80
2018,04,26,04,29,12.80
2018,04,26,04,30,12.80
2018,04,26,04,31,12.90
2018,04,26,04,32,12.90
2018,04,26,04,33,12.90
2018,04,26,04,34,13.00
2018,04,26,04,35,13.00
2018,04,26,04,36,13.10
2018,04,26,04,37,13.20
2018,04,26,04,38,13.30
2018,04,26,04,39,13.30
2018,04,26,04,40,13.40
2018,04,26,04,41,13.40
2018,04,26,04,42,13.40
2018,04,26,04,43,13.50
2018,04,26,04,44,13.50
2018,04,26,04,45,13.60
2018,04,26,04,46,13.60
2018,04,26,04,47,13.70
2018,04,26,04,48,13.70
2018,04,26,04,49,13.70
2018,04,26,04,50,13.70
2018,04,26,04,51,13.60
2018,04,26,04,52,13.60
2018,04,26,04,53,13.60
2018,04,26,04,54,13.60
2018,04,26,04,55,13.60
2018,04,26,04,56,13.70
2018,04,26,04,57,13.70
2018,04,26,04,58,13.70
2018,04,26,04,59,13.70
2018,04,26,05,00,13.70
2018,04,26,05,01,13.70
2018,04,26,05,02,13.60
2018,04,26,05,03,13.60
2018,04,26,05,04,13.60
2018,04,26,05,05,13.60
2018,04,26,05,06,13.60
2018,04,26,05,07,13.60
2018,04,26,05,08,13.60
2018,04,26,05,09,13.50
2018,04,26,05,10,13.50
2018,04,26,05,11,13.50
2018,04,26,05,12,13.50
2018,04,26,05,13,13.50
2018,04,26,05,14,13.40
2018,04,26,05,15,13.40
2018,04,26,05,16,13.40
2018,04,26,05,17,13.50
2018,04,26,05,18,13.50
2018,04,26,05,19,13.50
2018,04,26,05,20,13.60
2018,04,26,05,21,13.60
2018,04,26,05,22,13.60
2018,04,26,05,23,13.60
2018,04,26,05,24,13.60
2018,04,26,05,25,13.60
2018,04,26,05,26,13.60
2018,04,26,05,27,13.60
2018,04,26,05,28,13.60
2018,04,26,05,29,13.60
2018,04,26,05,30,13.70
2018,04,26,05,31,13.70
2018,04,26,05,32,13.70
2018,04,26,05,33,13.70
2018,04,26,05,34,13.70
2018,04,26,05,35,13.70
2018,04,26,05,36,13.70
2018,04,26,05,37,13.70
2018,04,26,05,38,13.70
2018,04,26,05,39,13.70
2018,04,26,05,40,13.70
2018,04,26,05,41,13.70
2018,04,26,05,42,13.70
2018,04,26,05,43,13.70
2018,04,26,05,44,13.70
2018,04,26,05,45,13.70
2018,04,26,05,46,13.70
2018,04,26,05,47,13.70
2018,04,26,05,48,13.70
2018,04,26,05,49,13.70
2018,04,26,05,50,13.70
2018,04,26,05,51,13.70
2018,04,26,05,52,13.70
2018,04,26,05,53,13.70
2018,04,26,05,54,13.60
2018,04,26,05,55,13.70
2018,04,26,05,56,13.70
2018,04,26,05,57,13.70
2018,04,26,05,58,13.70
2018,04,26,05,59,13.70
2018,04,26,06,00,13.70
2018,04,26,06,01,13.70
2018,04,26,06,02,13.70
2018,04,26,06,03,13.70
2018,04,26,06,04,13.70
2018,04,26,06,05,13.70
2018,04,26,06,06,13.80
2018,04,26,06,07,13.80
2018,04,26,06,08,13.80
2018,04,26,06,09,13.80
2018,04,26,06,10,13.80
2018,04,26,06,11,13.80
2018,04,26,06,12,13.80
2018,04,26,06,13,13.80
2018,04,26,06,14,13.80
2018,04,26,06,15,13.80
2018,04,26,06,16,13.90
2018,04,26,06,17,13.90
2018,04,26,06,18,13.90
2018,04,26,06,19,13.90
2018,04,26,06,20,13.90
2018,04,26,06,21,13.90
2018,04,26,06,22,13.90
2018,04,26,06,23,13.90
2018,04,26,06,24,13.90
2018,04,26,06,25,13.90
2018,04,26,06,26,13.90
2018,04,26,06,27,13.90
2018,04,26,06,28,13.90
2018,04,26,06,29,13.90
2018,04,26,06,30,13.90
2018,04,26,06,31,13.90
2018,04,26,06,32,14.00
2018,04,26,06,33,14.00
2018,04,26,06,34,14.10
2018,04,26,06,35,14.10
2018,04,26,06,36,14.10
2018,04,26,06,37,14.10
2018,04,26,06,38,14.10
2018,04,26,06,39,14.10
2018,04,26,06,40,14.10
2018,04,26,06,41,14.20
2018,04,26,06,42,14.20
2018,04,26,06,43,14.20
2018,04,26,06,44,14.30
2018,04,26,06,45,14.30
2018,04,26,06,46,14.30
2018,04,26,06,47,14.40
2018,04,26,06,48,14.40
2018,04,26,06,49,14.40
2018,04,26,06,50,14.40
2018,04,26,06,51,14.40
2018,04,26,06,52,14.50
2018,04,26,06,53,14.50
2018,04,26,06,54,14.50
2018,04,26,06,55,14.50
2018,04,26,06,56,14.50
2018,04,26,06,57,14.50
2018,04,26,06,58,14.60
2018,04,26,06,59,14.60
2018,04,26,07,00,14.60
2018,04,26,07,01,14.70
2018,04,26,07,02,14.70
2018,04,26,07,03,14.70
2018,04,26,07,04,14.70
2018,04,26,07,05,14.80
2018,04,26,07,06,14.80
2018,04,26,07,07,14.80
2018,04,26,07,08,14.80
2018,04,26,07,09,14.80
2018,04,26,07,10,14.90
2018,04,26,07,11,14.90
2018,04,26,07,12,15.00
2018,04,26,07,13,15.00
2018,04,26,07,14,15.00
2018,04,26,07,15,15.10
2018,04,26,07,16,15.10
2018,04,26,07,17,15.20
2018,04,26,07,18,15.20
2018,04,26,07,19,15.20
2018,04,26,07,20,15.20
2018,04,26,07,21,15.20
2018,04,26,07,22,15.30
2018,04,26,07,23,15.30
2018,04,26,07,24,15.40
2018,04,26,07,25,15.40
2018,04,26,07,26,15.40
2018,04,26,07,27,15.50
2018,04,26,07,28,15.50
2018,04,26,07,29,15.50
2018,04,26,07,30,15.60
2018,04,26,07,31,15.60
2018,04,26,07,32,15.70
2018,04,26,07,33,15.70
2018,04,26,07,34,15.80
2018,04,26,07,35,15.80
2018,04,26,07,36,15.80
2018,04,26,07,37,15.80
2018,04,26,07,38,15.90
2018,04,26,07,39,15.90
2018,04,26,07,40,15.90
2018,04,26,07,41,16.00
2018,04,26,07,42,16.00
2018,04,26,07,43,16.00
2018,04,26,07,44,16.10
2018,04,26,07,45,16.10
2018,04,26,07,46,16.10
2018,04,26,07,47,16.10
2018,04,26,07,48,16.10
2018,04,26,07,49,16.10
2018,04,26,07,50,16.10
2018,04,26,07,51,16.10
2018,04,26,07,52,16.10
2018,04,26,07,53,16.10
2018,04,26,07,54,16.10
2018,04,26,07,55,16.10
2018,04,26,07,56,16.10
2018,04,26,07,57,16.20
2018,04,26,07,58,16.20
2018,04,26,07,59,16.20
2018,04,26,08,00,16.20
2018,04,26,08,01,16.30
2018,04,26,08,02,16.30
2018,04,26,08,03,16.30
2018,04,26,08,04,16.40
2018,04,26,08,05,16.40
2018,04,26,08,06,16.50
2018,04,26,08,07,16.50
2018,04,26,08,08,16.60
2018,04,26,08,09,16.70
2018,04,26,08,10,16.80
2018,04,26,08,11,16.80
2018,04,26,08,12,16.90
2018,04,26,08,13,16.90
2018,04,26,08,14,16.90
2018,04,26,08,15,16.90
2018,04,26,08,16,16.90
2018,04,26,08,17,16.90
2018,04,26,08,18,17.00
2018,04,26,08,19,17.00
2018,04,26,08,20,17.00
2018,04,26,08,21,17.00
2018,04,26,08,22,17.00
2018,04,26,08,23,17.00
2018,04,26,08,24,17.00
2018,04,26,08,25,16.90
2018,04,26,08,26,16.90
2018,04,26,08,27,16.90
2018,04,26,08,28,16.90
2018,04,26,08,29,16.80
2018,04,26,08,30,16.80
2018,04,26,08,31,16.80
2018,04,26,08,32,16.80
2018,04,26,08,33,16.80
2018,04,26,08,34,16.70
2018,04,26,08,35,16.70
2018,04,26,08,36,16.70
2018,04,26,08,37,16.80
2018,04,26,08,38,16.80
2018,04,26,08,39,16.80
2018,04,26,08,40,16.80
2018,04,26,08,41,16.80
2018,04,26,08,42,16.80
2018,04,26,08,43,16.90
2018,04,26,08,44,16.90
2018,04,26,08,45,16.90
2018,04,26,08,46,16.90
2018,04,26,08,47,16.90
2018,04,26,08,48,17.00
2018,04,26,08,49,17.00
2018,04,26,08,50,17.10
2018,04,26,08,51,17.10
2018,04,26,08,52,17.20
2018,04,26,08,53,17.20
2018,04,26,08,54,17.30
2018,04,26,08,55,17.30
2018,04,26,08,56,17.30
2018,04,26,08,57,17.20
2018,04,26,08,58,17.20
2018,04,26,08,59,17.20
2018,04,26,09,00,17.10
2018,04,26,09,01,17.10
2018,04,26,09,02,17.00
2018,04,26,09,03,16.90
2018,04,26,09,04,17.00
2018,04,26,09,05,17.00
2018,04,26,09,06,17.00
2018,04,26,09,07,17.00
2018,04,26,09,08,17.00
2018,04,26,09,09,17.10
2018,04,26,09,10,17.10
2018,04,26,09,11,17.10
2018,04,26,09,12,17.20
2018,04,26,09,13,17.30
2018,04,26,09,14,17.30
2018,04,26,09,15,17.40
2018,04,26,09,16,17.40
2018,04,26,09,17,17.50
2018,04,26,09,18,17.60
2018,04,26,09,19,17.60
2018,04,26,09,20,17.70
2018,04,26,09,21,17.80
2018,04,26,09,22,17.90
2018,04,26,09,23,18.00
2018,04,26,09,24,18.00
2018,04,26,09,25,18.00
2018,04,26,09,26,17.90
2018,04,26,09,27,17.80
2018,04,26,09,28,17.80
2018,04,26,09,29,17.80
2018,04,26,09,30,17.80
2018,04,26,09,31,17.80
2018,04,26,09,32,17.80
2018,04,26,09,33,17.90
2018,04,26,09,34,17.90
2018,04,26,09,35,17.90
2018,04,26,09,36,17.80
2018,04,26,09,37,17.90
2018,04,26,09,38,17.90
2018,04,26,09,39,17.90
2018,04,26,09,40,17.90
2018,04,26,09,41,17.90
2018,04,26,09,42,17.90
2018,04,26,09,43,18.00
2018,04,26,09,44,18.00
2018,04,26,09,45,18.10
2018,04,26,09,46,18.10
2018,04,26,09,47,18.10
2018,04,26,09,48,18.20
2018,04,26,09,49,18.20
2018,04,26,09,50,18.30
2018,04,26,09,51,18.30
2018,04,26,09,52,18.30
2018,04,26,09,53,18.30
2018,04,26,09,54,18.40
2018,04,26,09,55,18.40
2018,04,26,09,56,18.40
2018,04,26,09,57,18.50
2018,04,26,09,58,18.60
2018,04,26,09,59,18.60
2018,04,26,10,00,18.70
2018,04,26,10,01,18.70
2018,04,26,10,02,18.70
2018,04,26,10,03,18.80
2018,04,26,10,04,18.80
2018,04,26,10,05,18.80
2018,04,26,10,06,18.80
2018,04,26,10,07,18.80
2018,04,26,10,08,18.80
2018,04,26,10,09,18.90
2018,04,26,10,10,18.90
2018,04,26,10,11,19.00
2018,04,26,10,12,19.00
2018,04,26,10,13,19.00
2018,04,26,10,14,19.00
2018,04,26,10,15,19.00
2018,04,26,10,16,19.00
2018,04,26,10,17,19.00
2018,04,26,10,18,19.10
2018,04,26,10,19,19.10
2018,04,26,10,20,19.10
2018,04,26,10,21,19.10
2018,04,26,10,22,19.10
2018,04,26,10,23,19.10
2018,04,26,10,24,19.00
2018,04,26,10,25,18.90
2018,04,26,10,26,18.90
2018,04,26,10,27,18.80
2018,04,26,10,28,18.80
2018,04,26,10,29,18.80
2018,04,26,10,30,18.80
2018,04,26,10,31,18.90
2018,04,26,10,32,18.90
2018,04,26,10,33,18.90
2018,04,26,10,34,19.00
2018,04,26,10,35,19.00
2018,04,26,10,36,19.10
2018,04,26,10,37,19.10
2018,04,26,10,38,19.10
2018,04,26,10,39,19.20
2018,04,26,10,40,19.20
2018,04,26,10,41,19.30
2018,04,26,10,42,19.30
2018,04,26,10,43,19.30
2018,04,26,10,44,19.30
2018,04,26,10,45,19.40
2018,04,26,10,46,19.50
2018,04,26,10,47,19.50
2018,04,26,10,48,19.60
2018,04,26,10,49,19.60
2018,04,26,10,50,19.70
2018,04,26,10,51,19.70
2018,04,26,10,52,19.70
2018,04,26,10,53,19.70
2018,04,26,10,54,19.70
2018,04,26,10,55,19.70
2018,04,26,10,56,19.80
2018,04,26,10,57,19.80
2018,04,26,10,58,19.70
2018,04,26,10,59,19.70
2018,04,26,11,00,19.70
2018,04,26,11,01,19.70
2018,04,26,11,02,19.80
2018,04,26,11,03,19.80
2018,04,26,11,04,19.80
2018,04,26,11,05,19.90
2018,04,26,11,06,19.90
2018,04,26,11,07,19.90
2018,04,26,11,08,19.90
2018,04,26,11,09,19.80
2018,04,26,11,10,19.80
2018,04,26,11,11,19.80
2018,04,26,11,12,19.80
2018,04,26,11,13,19.80
2018,04,26,11,14,19.80
2018,04,26,11,15,19.80
2018,04,26,11,16,19.80
2018,04,26,11,17,19.80
2018,04,26,11,18,19.90
2018,04,26,11,19,19.90
2018,04,26,11,20,19.90
2018,04,26,11,21,19.90
2018,04,26,11,22,19.90
2018,04,26,11,23,19.80
2018,04,26,11,24,19.70
2018,04,26,11,25,19.70
2018,04,26,11,26,19.70
2018,04,26,11,27,19.70
2018,04,26,11,28,19.70
2018,04,26,11,29,19.70
2018,04,26,11,30,19.60
2018,04,26,11,31,19.60
2018,04,26,11,32,19.60
2018,04,26,11,33,19.60
2018,04,26,11,34,19.60
2018,04,26,11,35,19.70
2018,04,26,11,36,19.80
2018,04,26,11,37,19.90
2018,04,26,11,38,19.90
2018,04,26,11,39,19.90
2018,04,26,11,40,19.90
2018,04,26,11,41,20.00
2018,04,26,11,42,20.00
2018,04,26,11,43,20.00
2018,04,26,11,44,20.10
2018,04,26,11,45,20.10
2018,04,26,11,46,20.20
2018,04,26,11,47,20.10
2018,04,26,11,48,20.10
2018,04,26,11,49,20.10
2018,04,26,11,50,20.10
2018,04,26,11,51,20.00
2018,04,26,11,52,20.00
2018,04,26,11,53,20.00
2018,04,26,11,54,20.10
2018,04,26,11,55,20.10
2018,04,26,11,56,20.20
2018,04,26,11,57,20.30
2018,04,26,11,58,20.50
2018,04,26,11,59,20.60
2018,04,26,12,00,20.70
2018,04,26,12,01,20.80
2018,04,26,12,02,20.80
2018,04,26,12,03,20.80
2018,04,26,12,04,20.80
2018,04,26,12,05,20.90
2018,04,26,12,06,20.90
2018,04,26,12,07,21.00
2018,04,26,12,08,21.00
2018,04,26,12,09,21.10
2018,04,26,12,10,21.10
2018,04,26,12,11,21.10
2018,04,26,12,12,21.20
2018,04,26,12,13,21.20
2018,04,26,12,14,21.30
2018,04,26,12,15,21.40
2018,04,26,12,16,21.40
2018,04,26,12,17,21.40
2018,04,26,12,18,21.40
2018,04,26,12,19,21.30
2018,04,26,12,20,21.10
2018,04,26,12,21,21.10
2018,04,26,12,22,21.10
2018,04,26,12,23,21.10
2018,04,26,12,24,21.10
2018,04,26,12,25,21.20
2018,04,26,12,26,21.30
2018,04,26,12,27,21.40
2018,04,26,12,28,21.40
2018,04,26,12,29,21.40
2018,04,26,12,30,21.40
2018,04,26,12,31,21.40
2018,04,26,12,32,21.40
2018,04,26,12,33,21.40
2018,04,26,12,34,21.40
2018,04,26,12,35,21.50
2018,04,26,12,36,21.50
2018,04,26,12,37,21.40
2018,04,26,12,38,21.40
2018,04,26,12,39,21.40
2018,04,26,12,40,21.30
2018,04,26,12,41,21.30
2018,04,26,12,42,21.40
2018,04,26,12,43,21.40
2018,04,26,12,44,21.50
2018,04,26,12,45,21.50
2018,04,26,12,46,21.40
2018,04,26,12,47,21.30
2018,04,26,12,48,21.20
2018,04,26,12,49,21.20
2018,04,26,12,50,21.20
2018,04,26,12,51,21.30
2018,04,26,12,52,21.30
2018,04,26,12,53,21.30
2018,04,26,12,54,21.30
2018,04,26,12,55,21.30
2018,04,26,12,56,21.30
2018,04,26,12,57,21.40
2018,04,26,12,58,21.60
2018,04,26,12,59,21.70
2018,04,26,13,00,21.80
2018,04,26,13,01,21.90
2018,04,26,13,02,22.00
2018,04,26,13,03,22.10
2018,04,26,13,04,22.10
2018,04,26,13,05,22.10
2018,04,26,13,06,22.00
2018,04,26,13,07,21.90
2018,04,26,13,08,21.90
2018,04,26,13,09,21.90
2018,04,26,13,10,22.00
2018,04,26,13,11,22.00
2018,04,26,13,12,22.00
2018,04,26,13,13,22.00
2018,04,26,13,14,22.10
2018,04,26,13,15,22.20
2018,04,26,13,16,22.20
2018,04,26,13,17,22.30
2018,04,26,13,18,22.30
2018,04,26,13,19,22.40
2018,04,26,13,20,22.50
2018,04,26,13,21,22.50
2018,04,26,13,22,22.60
2018,04,26,13,23,22.60
2018,04,26,13,24,22.70
2018,04,26,13,25,22.70
2018,04,26,13,26,22.70
2018,04,26,13,27,22.70
2018,04,26,13,28,22.80
2018,04,26,13,29,22.80
2018,04,26,13,30,22.80
2018,04,26,13,31,22.80
2018,04,26,13,32,22.90
2018,04,26,13,33,22.90
2018,04,26,13,34,23.00
2018,04,26,13,35,23.00
2018,04,26,13,36,23.00
2018,04,26,13,37,23.10
2018,04,26,13,38,23.10
2018,04,26,13,39,23.10
2018,04,26,13,40,23.20
2018,04,26,13,41,23.20
2018,04,26,13,42,23.20
2018,04,26,13,43,23.30
2018,04,26,13,44,23.30
2018,04,26,13,45,23.40
2018,04,26,13,46,23.40
2018,04,26,13,47,23.50
2018,04,26,13,48,23.50
2018,04,26,13,49,23.60
2018,04,26,13,50,23.60
2018,04,26,13,51,23.60
2018,04,26,13,52,23.50
2018,04,26,13,53,23.60
2018,04,26,13,54,23.60
2018,04,26,13,55,23.60
2018,04,26,13,56,23.60
2018,04,26,13,57,23.70
2018,04,26,13,58,23.70
2018,04,26,13,59,23.70
2018,04,26,14,00,23.70
2018,04,26,14,01,23.80
2018,04,26,14,02,23.80
2018,04,26,14,03,23.80
2018,04,26,14,04,23.80
2018,04,26,14,05,23.80
2018,04,26,14,06,23.90
2018,04,26,14,07,23.90
2018,04,26,14,08,23.90
2018,04,26,14,09,23.90
2018,04,26,14,10,24.00
2018,04,26,14,11,24.00
2018,04,26,14,12,24.00
2018,04,26,14,13,24.00
2018,04,26,14,14,24.00
2018,04,26,14,15,24.00
2018,04,26,14,16,23.90
2018,04,26,14,17,23.90
2018,04,26,14,18,23.90
2018,04,26,14,19,23.90
2018,04,26,14,20,23.90
2018,04,26,14,21,23.90
2018,04,26,14,22,23.90
2018,04,26,14,23,23.90
2018,04,26,14,24,23.90
2018,04,26,14,25,23.90
2018,04,26,14,26,24.00
2018,04,26,14,27,24.00
2018,04,26,14,28,24.10
2018,04,26,14,29,24.10
2018,04,26,14,30,24.20
2018,04,26,14,31,24.20
2018,04,26,14,32,24.20
2018,04,26,14,33,24.20
2018,04,26,14,34,24.20
2018,04,26,14,35,24.20
2018,04,26,14,36,24.20
2018,04,26,14,37,24.20
2018,04,26,14,38,24.10
2018,04,26,14,39,24.10
2018,04,26,14,40,24.10
2018,04,26,14,41,24.10
2018,04,26,14,42,24.10
2018,04,26,14,43,24.20
2018,04,26,14,44,24.20
2018,04,26,14,45,24.30
2018,04,26,14,46,24.40
2018,04,26,14,47,24.40
2018,04,26,14,48,24.50
2018,04,26,14,49,24.60
2018,04,26,14,50,24.70
2018,04,26,14,51,24.80
2018,04,26,14,52,24.80
2018,04,26,14,53,24.80
2018,04,26,14,54,24.90
2018,04,26,14,55,24.90
2018,04,26,14,56,24.90
2018,04,26,14,57,24.90
2018,04,26,14,58,25.00
2018,04,26,14,59,25.00
2018,04,26,15,00,25.00
2018,04,26,15,01,25.10
2018,04,26,15,02,25.10
2018,04,26,15,03,25.20
2018,04,26,15,04,25.30
2018,04,26,15,05,25.30
2018,04,26,15,06,25.30
2018,04,26,15,07,25.30
2018,04,26,15,08,25.30
2018,04,26,15,09,25.30
2018,04,26,15,10,25.30
2018,04,26,15,11,25.30
2018,04,26,15,12,25.30
2018,04,26,15,13,25.30
2018,04,26,15,14,25.30
2018,04,26,15,15,25.30
2018,04,26,15,16,25.30
2018,04,26,15,17,25.20
2018,04,26,15,18,25.20
2018,04,26,15,19,25.20
2018,04,26,15,20,25.20
2018,04,26,15,21,25.20
2018,04,26,15,22,25.20
2018,04,26,15,23,25.30
2018,04,26,15,24,25.40
2018,04,26,15,25,25.40
2018,04,26,15,26,25.30
2018,04,26,15,27,25.30
2018,04,26,15,28,25.30
2018,04,26,15,29,25.30
2018,04,26,15,30,25.30
2018,04,26,15,31,25.30
2018,04,26,15,32,25.30
2018,04,26,15,33,25.30
2018,04,26,15,34,25.20
2018,04,26,15,35,25.20
2018,04,26,15,36,25.30
2018,04,26,15,37,25.30
2018,04,26,15,38,25.30
2018,04,26,15,39,25.40
2018,04,26,15,40,25.40
2018,04,26,15,41,25.40
2018,04,26,15,42,25.40
2018,04,26,15,43,25.40
2018,04,26,15,44,25.40
2018,04,26,15,45,25.30
2018,04,26,15,46,25.30
2018,04,26,15,47,25.20
2018,04,26,15,48,25.20
2018,04,26,15,49,25.10
2018,04,26,15,50,25.10
2018,04,26,15,51,25.20
2018,04,26,15,52,25.20
2018,04,26,15,53,25.20
2018,04,26,15,54,25.30
2018,04,26,15,55,25.30
2018,04,26,15,56,25.30
2018,04,26,15,57,25.30
2018,04,26,15,58,25.30
2018,04,26,15,59,25.20
2018,04,26,16,00,25.10
2018,04,26,16,01,24.90
2018,04,26,16,02,24.80
2018,04,26,16,03,24.70
2018,04,26,16,04,24.70
2018,04,26,16,05,24.70
2018,04,26,16,06,24.70
2018,04,26,16,07,24.70
2018,04,26,16,08,24.70
2018,04,26,16,09,24.70
2018,04,26,16,10,24.70
2018,04,26,16,11,24.80
2018,04,26,16,12,24.80
2018,04,26,16,13,24.80
2018,04,26,16,14,24.80
2018,04,26,16,15,24.80
2018,04,26,16,16,24.80
2018,04,26,16,17,24.90
2018,04,26,16,18,24.90
2018,04,26,16,19,24.90
2018,04,26,16,20,24.80
2018,04,26,16,21,24.80
2018,04,26,16,22,24.80
2018,04,26,16,23,24.70
2018,04,26,16,24,24.60
2018,04,26,16,25,24.60
2018,04,26,16,26,24.60
2018,04,26,16,27,24.70
2018,04,26,16,28,24.70
2018,04,26,16,29,24.80
2018,04,26,16,30,24.80
2018,04,26,16,31,24.80
2018,04,26,16,32,24.80
2018,04,26,16,33,24.80
2018,04,26,16,34,24.80
2018,04,26,16,35,24.80
2018,04,26,16,36,24.80
2018,04,26,16,37,24.80
2018,04,26,16,38,24.80
2018,04,26,16,39,24.80
2018,04,26,16,40,24.90
2018,04,26,16,41,24.90
2018,04,26,16,42,24.90
2018,04,26,16,43,25.00
2018,04,26,16,44,25.10
2018,04,26,16,45,25.20
2018,04,26,16,46,25.30
2018,04,26,16,47,25.30
2018,04,26,16,48,25.40
2018,04,26,16,49,25.50
2018,04,26,16,50,25.50
2018,04,26,16,51,25.60
2018,04,26,16,52,25.60
2018,04,26,16,53,25.60
2018,04,26,16,54,25.60
2018,04,26,16,55,25.70
2018,04,26,16,56,25.70
2018,04,26,16,57,25.70
2018,04,26,16,58,25.70
2018,04,26,16,59,25.60
2018,04,26,17,00,25.60
2018,04,26,17,01,25.60
2018,04,26,17,02,25.50
2018,04,26,17,03,25.40
2018,04,26,17,04,25.30
2018,04,26,17,05,25.30
2018,04,26,17,06,25.30
2018,04,26,17,07,25.30
2018,04,26,17,08,25.30
2018,04,26,17,09,25.30
2018,04,26,17,10,25.20
2018,04,26,17,11,25.20
2018,04,26,17,12,25.10
2018,04,26,17,13,25.10
2018,04,26,17,14,25.10
2018,04,26,17,15,25.00
2018,04,26,17,16,24.90
2018,04,26,17,17,24.80
2018,04,26,17,18,24.80
2018,04,26,17,19,24.80
2018,04,26,17,20,24.80